CW0343 Weather Reports


Display with metric or nautical units.
time (UTC)temp
F
wind
direction
speed
MPH
gust
MPH
rain 1hr
in
rain 24hr
in
rain mn
in
humidity
%
barometer
mb
20260505011304 78 159 8.0 12.0 0.00 0.01 0.00 68 1015.9
20260505010304 78 111 8.0 12.0 0.00 0.01 0.00 71 1016.0
20260505005805 78 143 6.0 13.0 0.00 0.01 0.00 71 1016.1
20260505005305 77 113 7.0 12.0 0.00 0.01 0.00 71 1016.2
20260505004806 77 135 8.0 13.0 0.00 0.01 0.00 72 1016.2
20260505004304 76 125 6.0 12.0 0.00 0.01 0.00 73 1016.3
20260505003804 76 161 5.0 7.0 0.00 0.01 0.00 74 1016.3
20260505003304 76 6 0.0 3.0 0.00 0.01 0.00 75 1016.4
20260505002305 76 3 0.0 0.0 0.00 0.01 0.00 75 1016.5
20260505001804 76 106 3.0 3.0 0.00 0.01 0.00 75 1016.5
20260505000805 76 131 2.0 3.0 0.00 0.01 0.00 75 1016.6
20260505000305 75 131 2.0 3.0 0.00 0.01 0.00 75 1016.7
20260504235804 75 134 3.0 9.0 0.00 0.01 0.00 75 1016.6
20260504235305 75 80 3.0 7.0 0.00 0.01 0.00 76 1016.7
20260504234805 74 165 2.0 8.0 0.00 0.01 0.00 76 1016.7
20260504234304 74 117 1.0 8.0 0.00 0.01 0.00 77 1016.7
20260504233806 74 150 0.0 3.0 0.00 0.01 0.00 77 1016.7
20260504232804 74 139 5.0 10.0 0.00 0.01 0.00 77 1016.6
20260504232304 74 140 4.0 10.0 0.00 0.01 0.00 78 1016.5
20260504231804 73 106 5.0 9.0 0.00 0.01 0.00 78 1016.5
20260504231304 73 123 6.0 10.0 0.00 0.01 0.00 79 1016.5
20260504230816 73 116 3.0 7.0 0.00 0.01 0.00 79 1016.4
20260504230304 72 111 3.0 8.0 0.00 0.01 0.00 79 1016.5
20260504225804 72 113 6.0 7.0 0.00 0.01 0.01 80 1016.4
20260504225304 71 149 4.0 7.0 0.00 0.01 0.01 80 1016.4
20260504224804 71 138 6.0 10.0 0.00 0.01 0.01 80 1016.4
20260504224304 71 109 5.0 8.0 0.00 0.01 0.01 81 1016.4
20260504223305 70 132 5.0 10.0 0.00 0.01 0.01 82 1016.4
20260504222804 70 127 4.0 10.0 0.00 0.01 0.01 82 1016.4
20260504222305 70 116 6.0 10.0 0.00 0.01 0.01 83 1016.4
20260504221804 69 117 3.0 9.0 0.00 0.01 0.01 83 1016.4
20260504221304 69 112 3.0 9.0 0.00 0.01 0.01 84 1016.3
20260504220804 69 103 3.0 10.0 0.00 0.01 0.01 84 1016.2
20260504220304 68 155 3.0 7.0 0.00 0.01 0.01 84 1016.2
20260504215804 68 123 3.0 7.0 0.00 0.01 0.01 84 1016.2
20260504215305 68 131 4.0 9.0 0.00 0.01 0.01 85 1016.2
20260504214805 68 136 1.0 3.0 0.00 0.01 0.01 85 1016.2
20260504214304 68 146 1.0 3.0 0.00 0.01 0.01 85 1016.2
20260504213804 67 130 0.0 5.0 0.00 0.01 0.01 85 1016.1
20260504213305 67 97 1.0 3.0 0.00 0.01 0.01 85 1016.2
20260504212805 67 96 1.0 3.0 0.00 0.01 0.01 85 1016.0
20260504212305 67 95 2.0 3.0 0.00 0.01 0.01 85 1016.0
20260504211804 67 91 1.0 3.0 0.00 0.01 0.01 85 1015.9
20260504211305 67 90 1.0 2.0 0.00 0.01 0.01 85 1015.9
20260504210804 67 90 1.0 3.0 0.00 0.01 0.01 85 1015.8
20260504205305 67 90 0.0 2.0 0.00 0.01 0.01 85 1015.7
20260504204804 67 90 1.0 3.0 0.00 0.01 0.01 85 1015.6
20260504203804 66 90 1.0 2.0 0.00 0.01 0.01 85 1015.6
20260504203305 66 90 2.0 6.0 0.00 0.01 0.01 85 1015.5
20260504201804 66 92 2.0 3.0 0.00 0.01 0.01 85 1015.2
20260504201305 66 92 1.0 3.0 0.00 0.01 0.01 85 1015.2
20260504195804 66 92 2.0 6.0 0.00 0.01 0.01 85 1015.1
20260504195305 66 93 4.0 7.0 0.00 0.01 0.01 85 1015.1
20260504194805 66 99 3.0 7.0 0.00 0.01 0.01 85 1015.2
20260504194304 66 132 3.0 3.0 0.00 0.01 0.01 86 1015.2
20260504193805 66 145 3.0 5.0 0.00 0.01 0.01 86 1015.1
20260504192805 66 101 2.0 3.0 0.00 0.01 0.01 86 1015.0
20260504192304 66 99 3.0 6.0 0.00 0.01 0.01 86 1014.9
20260504191805 66 97 1.0 3.0 0.00 0.01 0.01 86 1014.8
20260504191305 66 96 3.0 7.0 0.00 0.01 0.01 86 1014.8
20260504190804 66 98 2.0 6.0 0.00 0.01 0.01 86 1014.8
20260504190304 66 96 3.0 6.0 0.00 0.01 0.01 86 1014.7
20260504185804 66 96 1.0 3.0 0.00 0.01 0.01 86 1014.7
20260504185305 66 96 2.0 7.0 0.00 0.01 0.01 86 1014.7
20260504184304 65 142 1.0 3.0 0.00 0.01 0.01 86 1014.8
20260504183804 65 142 0.0 3.0 0.00 0.01 0.01 85 1014.7
20260504183305 65 142 1.0 3.0 0.00 0.01 0.01 85 1014.6
20260504182806 66 143 0.0 1.0 0.00 0.01 0.01 85 1014.5
20260504182306 66 143 1.0 3.0 0.00 0.01 0.01 85 1014.5
20260504181804 66 143 1.0 2.0 0.00 0.01 0.01 85 1014.6
20260504181304 66 143 1.0 3.0 0.00 0.01 0.01 85 1014.5
20260504180804 66 148 2.0 3.0 0.00 0.01 0.01 85 1014.6
20260504175805 66 146 1.0 3.0 0.00 0.01 0.01 85 1014.7
20260504175305 66 146 2.0 3.0 0.00 0.01 0.01 85 1014.7
20260504174305 66 146 1.0 3.0 0.00 0.01 0.01 85 1014.8
20260504173304 66 145 3.0 7.0 0.00 0.01 0.01 86 1014.9
20260504172804 66 138 2.0 7.0 0.00 0.01 0.01 86 1015.0
20260504171804 66 153 2.0 3.0 0.00 0.01 0.01 85 1015.1
20260504171304 66 155 1.0 3.0 0.00 0.01 0.01 85 1015.1
20260504170804 65 155 2.0 6.0 0.00 0.01 0.01 85 1015.2
20260504170305 65 156 2.0 7.0 0.00 0.01 0.01 85 1015.1
20260504150805 66 160 1.0 3.0 0.00 0.01 0.01 85 1016.2
20260504141305 68 107 0.0 3.0 0.01 0.01 0.01 85 1017.0
20260504140804 68 107 2.0 3.0 0.01 0.01 0.01 85 1017.1
20260504140304 68 108 3.0 6.0 0.01 0.01 0.01 84 1017.1
20260504130804 68 150 3.0 8.0 0.00 0.00 0.00 83 1017.1
20260504130304 69 153 3.0 7.0 0.00 0.00 0.00 82 1017.1
20260504120304 69 119 1.0 3.0 0.00 0.00 0.00 82 1017.0
20260504110304 69 121 3.0 7.0 0.00 0.00 0.00 81 1017.1
20260504100304 70 127 5.0 10.0 0.00 0.00 0.00 80 1016.5
20260504081305 73 80 1.0 2.0 0.00 0.00 0.00 74 1014.7
20260504080804 74 80 1.0 2.0 0.00 0.00 0.00 73 1014.7
20260504080304 74 80 1.0 3.0 0.00 0.00 0.00 72 1014.6
20260504070305 76 57 2.0 6.0 0.00 0.00 0.00 70 1014.1
20260504050305 80 54 3.0 12.0 0.00 0.00 0.00 69 1013.4
20260504044804 78 31 3.0 7.0 0.00 0.00 0.00 67 1013.4
20260504044304 78 17 5.0 9.0 0.00 0.00 0.00 66 1013.5
20260504043805 78 79 5.0 9.0 0.00 0.00 0.00 65 1013.5
20260504043304 78 54 3.0 7.0 0.00 0.00 0.00 67 1013.5
20260504042804 78 93 7.0 12.0 0.00 0.00 0.00 67 1013.6
20260504042304 78 117 4.0 9.0 0.00 0.00 0.00 66 1013.7
20260504041805 77 3 0.0 0.0 0.00 0.00 0.00 71 1013.7
20260504040804 77 3 0.0 0.0 0.00 0.00 0.00 71 1013.7
20260504035804 77 3 0.0 0.0 0.00 0.00 0.00 71 1013.9
20260504034804 77 3 0.0 0.0 0.00 0.00 0.00 71 1014.0
20260504034304 77 3 0.0 0.0 0.00 0.00 0.00 71 1014.0
20260504033804 77 3 0.0 0.0 0.00 0.00 0.00 71 1014.0
20260504033304 77 3 0.0 3.0 0.00 0.00 0.00 71 1014.0
20260504032805 77 115 3.0 3.0 0.00 0.00 0.00 71 1014.1
20260504032304 77 115 3.0 8.0 0.00 0.00 0.00 71 1014.2
20260504030805 78 137 6.0 10.0 0.00 0.00 0.00 70 1014.4
20260504025805 79 103 7.0 12.0 0.00 0.00 0.00 68 1014.4
20260504025304 80 146 8.0 10.0 0.00 0.00 0.00 67 1014.4
20260504024804 80 119 5.0 14.0 0.00 0.00 0.00 66 1014.3
20260504024304 80 133 7.0 15.0 0.00 0.00 0.00 64 1014.4
20260504023804 80 92 12.0 12.0 0.00 0.00 0.00 64 1014.4
20260504023304 80 87 8.0 12.0 0.00 0.00 0.00 64 1014.5
20260504022804 79 89 9.0 14.0 0.00 0.00 0.00 65 1014.5
20260504022305 79 85 11.0 15.0 0.00 0.00 0.00 63 1014.5
20260504021804 79 100 7.0 13.0 0.00 0.00 0.00 65 1014.5
20260504021305 80 110 9.0 12.0 0.00 0.00 0.00 64 1014.5
20260504020805 81 96 7.0 8.0 0.00 0.00 0.00 65 1014.5
20260504015804 80 90 3.0 12.0 0.00 0.00 0.00 65 1014.7
20260504015304 80 105 6.0 14.0 0.00 0.00 0.00 66 1014.8
20260504014304 79 104 6.0 9.0 0.00 0.00 0.00 67 1015.0
20260504013804 79 103 4.0 7.0 0.00 0.00 0.00 67 1015.1
20260504013304 79 96 4.0 7.0 0.00 0.00 0.00 67 1015.2
20260504012804 80 57 6.0 12.0 0.00 0.00 0.00 67 1015.3
20260504012304 79 48 6.0 10.0 0.00 0.00 0.00 67 1015.5
20260504011804 79 71 6.0 10.0 0.00 0.00 0.00 67 1015.5